TELSTAR 11N

Last updated on June 17, 2019, 3:36 a.m. UTC

1 34111U 09009A   19167.15088243 -.00000259  00000-0  00000+0 0  9999
2 34111   0.0248   2.7218 0002832  75.3223 202.8579  1.00269285 37762
UTC
Height (km)
Latitude
Longitude
Inclination
Orbital Period
UTC large
Height (km)
Speed (km/s)
/
Latitude / Longitude
Inclination (degrees)
Orbital Period (minutes)
Azimuth
Elevation
Range (km)
Doppler Factor
iOS Compass Heading
iOS Angle

Next 30 passes for location: Hong Kong

Rise time Rise Azimuth (degrees) Set time Set Azimuth (degrees) Duration Max altitude (degrees)

No matching passes for this satellites